Location: Argonnex
(45.9500°N, 6.1333°E)
Time: 10:25:03
(UTC+00:00)

Cosmos 2266 Rocket - Pass Details

Date: 06 October 2023
Orbit: 933 x 1008 km, 82.9° (Epoch: 10 December)

Event Time Altitude Azimuth Distance (km) Brightness Sun altitude
Exits shadow 01:13:20 27° 47° (NE) 1,822 5.8 -42.6°
Drops below altitude 10° 01:16:41 10° 23° (NNE) 2,795 7.0 -42.3°
Sets 01:19:25 0° 16° (NNE) 3,751 7.8 -42.0°
